FENGYUN 1C DEB, 30996

Orbit data source: Space-Track

FENGYUN 1C DEB, 30996 is space debris in SSO originally from a launch on Mon, 10 May 1999 UTC launched from the Taiyaun Space Center, China (TSC). Fengyun 1C debris stems from the Chinese weather satellite Fengyun-1C, which was intentionally destroyed by a Chinese anti-satellite missile in 2007. This event dramatically increased the amount of space debris, with thousands of trackable fragments posing hazards to satellites and human spaceflight. The Fengyun 1C debris cloud has become a focal point in discussions about space sustainability and the need for international regulations to prevent the creation of new debris.

Loading next visibility...
Identifier
30996, 1999-025BCN
Orbit
SSO
Country
Flag of CNCN / PRC
Related business
Manufacturer
Unknown
Mission
Spacecraft
Bus & Motor
Unknown
Mass
Unknown
Launch date (UTC)
1999-05-10 (27 years ago)
Launch vehicle
Unknown
Launch site
Taiyaun Space Center, China (TSC)
Object type
Payload
Rocket body
Debris
Shape & HBR
Unknown shape, 0.1 m
Radar Cross Section
Small (<0.1 m²)

Expand to show TLE details & history
Last TLE update: 2 days ago

TLE from 2 days ago
0 FENGYUN 1C DEB
1 30996U 99025BCN 26122.23318917  .00001691  00000-0  58898-3 0  9997
2 30996  98.9411  37.3579 0048509 238.0726 275.6061 14.36131403995791
Epoch: 2026-05-02T05:35Z
TLE epoch observation values (Epoch: 2026-05-02T05:35:47.544Z)
Latitude
26.55975°
Longitude
-82.25751°
Altitude
771.327 km
Speed
7.472 km/s
True Right ascension
14h 47m 22s
True Declination
26° 25' 22"
Sunlit
Object was in full shadow at epoch
Visualization orbit readout
Latitude
Unknown
Longitude
Unknown
Altitude
Unknown
Speed
Unknown
Apparent Right ascension
Unknown
Apparent Declination
Unknown
Sunlit
N/A
Visualization observer readout
Local Sidereal Time
16:37:01
Azimuth
Unknown
Elevation
Unknown
Doppler factor
Unknown
Orbital elements
Apogee altitude
803.125 km
Perigee altitude
733.79 km
Semi-major axis
7,146.594 km
Eccentricity
0.00485
Inclination
98.9411°
RAAN
37.3579°
Arg. of periapsis
238.0726°
True anomaly
275.05257°
Mean anomaly
275.6061°
Eccentric anomaly
275.32937°
Mean motion
3.59248 °/min
Orbital period
100.21 mins
BSTAR
0.00058898
Loading maneuver chart data...
Computing Atmospheric mass density...
Loading historical data...
Loading historical data...
Loading historical data...
Loading historical data...
Loading historical data...
Loading historical data...
Loading historical data...

Documentation

Showing up to 5 results
|